Crane Lake, MN

2:36 AM CDT on October 19, 2017 (GMT -0500)
Crane Lake

Weather History for KCDD - October, 2012

Change the Weather History Date:

Saturday, October 6, 2012

  Actual Average Record
Temperature  
Mean Temperature 35 °F -  
Max Temperature 44 °F 55 °F 80 °F (2011)
Min Temperature 24 °F 36 °F 23 °F (1999)
Degree Days  
Heating Degree Days 30    
Moisture  
Dew Point 28 °F    
Average Humidity 77    
Maximum Humidity 100    
Minimum Humidity 46    
Precipitation  
Precipitation 0.00 in - - ()
Sea Level Pressure  
Sea Level Pressure 30.17 in    
Wind  
Wind Speed 8 mph (NW)    
Max Wind Speed 15 mph    
Max Gust Speed 23 mph    
Visibility 10 miles    
Events      
Averages and records for this station are not official NWS values.
T = Trace of Precipitation, MM = Missing Value Source: NWS Daily Summary

Daily Weather History Graph

Daily Weather History Graph

Search for Another Location

Airport or City:

Trip Planner

Search our weather history database for the weather conditions in past years. The results will help you decide how hot, cold, wet, or windy it might be!

Date:

Astronomy

Oct. 06, 2012 Rise Set
Actual Time 7:17 AM CDT 6:37 PM CDT
Civil Twilight 6:45 AM CDT 7:08 PM CDT
Nautical Twilight 6:09 AM CDT 7:44 PM CDT
Astronomical Twilight 5:33 AM CDT 8:21 PM CDT
Moon 10:32 PM CDT (10/6) 1:33 PM CDT (10/6)
Length of Visible Light 12h 22m
Length of Day
11h 20m
Waning Gibbous, 65% of the Moon is Illuminated
Oct 6
Waning Gibbous
Oct 8
Last Quarter
Oct 15
New
Oct 21
First Quarter
Oct 29
Full

Hourly Weather History & Observations

Time (CDT) Temp. Windchill Dew Point Humidity Pressure Visibility Wind Dir Wind Speed Gust Speed Precip Events Conditions
12:09 AM 32.0 °F 23.0 °F 32.0 °F 100% 30.11 in 10.0 mi NNW 11.5 mph 17.3 mph N/A   Overcast
12:29 AM 32.0 °F 24.2 °F 32.0 °F 100% 30.11 in 10.0 mi NNW 9.2 mph 19.6 mph N/A   Overcast
12:49 AM 32.0 °F 23.0 °F 32.0 °F 100% 30.11 in 10.0 mi NNW 11.5 mph 16.1 mph N/A   Overcast
1:09 AM 32.0 °F 22.1 °F 32.0 °F 100% 30.12 in 10.0 mi NNW 13.8 mph 23.0 mph N/A   Overcast
1:29 AM 32.0 °F 23.6 °F 32.0 °F 100% 30.12 in 10.0 mi NNW 10.4 mph 16.1 mph N/A   Mostly Cloudy
1:49 AM 32.0 °F 23.6 °F 30.2 °F 93% 30.12 in 10.0 mi NNW 10.4 mph 20.7 mph N/A   Mostly Cloudy
2:09 AM 32.0 °F 23.0 °F 32.0 °F 100% 30.13 in 10.0 mi NNW 11.5 mph 19.6 mph N/A   Mostly Cloudy
2:29 AM 33.8 °F 25.8 °F 32.0 °F 93% 30.13 in 10.0 mi NNW 10.4 mph 16.1 mph N/A   Mostly Cloudy
2:49 AM 33.8 °F 24.8 °F 32.0 °F 93% 30.13 in 10.0 mi NNW 12.7 mph 20.7 mph N/A   Overcast
3:09 AM 33.8 °F 27.7 °F 32.0 °F 93% 30.13 in 10.0 mi NNW 6.9 mph 18.4 mph N/A   Overcast
3:29 AM 33.8 °F 27.0 °F 32.0 °F 93% 30.13 in 10.0 mi North 8.1 mph 20.7 mph N/A   Overcast
3:49 AM 33.8 °F 26.4 °F 32.0 °F 93% 30.14 in 10.0 mi NNW 9.2 mph 19.6 mph N/A   Overcast
4:10 AM 33.8 °F 25.8 °F 32.0 °F 93% 30.14 in 10.0 mi North 10.4 mph 16.1 mph N/A   Mostly Cloudy
4:29 AM 32.0 °F 23.6 °F 32.0 °F 100% 30.15 in 10.0 mi NNW 10.4 mph 18.4 mph N/A   Mostly Cloudy
4:50 AM 30.2 °F 22.6 °F 30.2 °F 100% 30.15 in 10.0 mi NNW 8.1 mph 16.1 mph N/A   Scattered Clouds
5:09 AM 30.2 °F 23.4 °F 30.2 °F 100% 30.16 in 10.0 mi NNW 6.9 mph - N/A   Mostly Cloudy
5:29 AM 32.0 °F 24.2 °F 32.0 °F 100% 30.16 in 10.0 mi NNW 9.2 mph - N/A   Overcast
5:49 AM 33.8 °F 25.8 °F 32.0 °F 93% 30.16 in 10.0 mi NNW 10.4 mph 17.3 mph N/A   Overcast
6:09 AM 33.8 °F 25.3 °F 32.0 °F 93% 30.17 in 10.0 mi NNW 11.5 mph 18.4 mph N/A   Overcast
6:29 AM 32.0 °F 23.6 °F 30.2 °F 93% 30.17 in 10.0 mi NNW 10.4 mph 16.1 mph N/A   Mostly Cloudy
6:49 AM 32.0 °F 24.8 °F 30.2 °F 93% 30.18 in 10.0 mi NNW 8.1 mph - N/A   Mostly Cloudy
7:09 AM 33.8 °F 28.6 °F 30.2 °F 87% 30.18 in 10.0 mi NNW 5.8 mph - N/A   Overcast
7:29 AM 32.0 °F 25.6 °F 30.2 °F 93% 30.19 in 10.0 mi NW 6.9 mph - N/A   Overcast
7:49 AM 33.8 °F 28.6 °F 32.0 °F 93% 30.19 in 10.0 mi NW 5.8 mph - N/A   Overcast
8:09 AM 33.8 °F 27.7 °F 32.0 °F 93% 30.20 in 10.0 mi NW 6.9 mph - N/A   Overcast
8:29 AM 33.8 °F 28.6 °F 32.0 °F 93% 30.20 in 10.0 mi NNW 5.8 mph - N/A   Overcast
8:49 AM 33.8 °F 27.0 °F 33.8 °F 100% 30.20 in 10.0 mi NNW 8.1 mph - N/A   Overcast
9:09 AM 35.6 °F 29.2 °F 33.8 °F 93% 30.21 in 10.0 mi NW 8.1 mph - N/A   Overcast
9:29 AM 35.6 °F 29.9 °F 33.8 °F 93% 30.21 in 10.0 mi NW 6.9 mph - N/A   Overcast
9:50 AM 37.4 °F 32.1 °F 33.8 °F 87% 30.21 in 10.0 mi NW 6.9 mph - N/A   Overcast
10:09 AM 37.4 °F 31.4 °F 33.8 °F 87% 30.22 in 10.0 mi NW 8.1 mph - N/A   Overcast
10:29 AM 37.4 °F 30.8 °F 33.8 °F 87% 30.22 in 10.0 mi NNW 9.2 mph 16.1 mph N/A   Overcast
10:49 AM 39.2 °F 34.2 °F 33.8 °F 81% 30.22 in 10.0 mi NNW 6.9 mph - N/A   Overcast
11:09 AM 39.2 °F 30.8 °F 33.8 °F 81% 30.23 in 10.0 mi NNW 15.0 mph 20.7 mph N/A   Overcast
11:29 AM 39.2 °F 32.5 °F 32.0 °F 75% 30.23 in 10.0 mi North 10.4 mph 17.3 mph N/A   Overcast
11:49 AM 42.8 °F 36.6 °F 32.0 °F 66% 30.23 in 10.0 mi NNW 11.5 mph - N/A   Overcast
12:09 PM 39.2 °F 32.0 °F 28.4 °F 65% 30.23 in 10.0 mi NW 11.5 mph 17.3 mph N/A   Overcast
12:29 PM 39.2 °F 35.0 °F 30.2 °F 70% 30.23 in 10.0 mi NW 5.8 mph - N/A   Scattered Clouds
12:49 PM 42.8 °F 38.6 °F 32.0 °F 66% 30.22 in 10.0 mi NW 6.9 mph - N/A   Mostly Cloudy
1:09 PM 42.8 °F 38.6 °F 28.4 °F 57% 30.22 in 10.0 mi North 6.9 mph - N/A   Overcast
1:29 PM 42.8 °F 38.0 °F 26.6 °F 53% 30.21 in 10.0 mi NNW 8.1 mph - N/A   Overcast
1:49 PM 44.6 °F 40.2 °F 28.4 °F 53% 30.21 in 10.0 mi NNW 8.1 mph - N/A   Mostly Cloudy
2:09 PM 42.8 °F 38.0 °F 24.8 °F 49% 30.20 in 10.0 mi NNW 8.1 mph - N/A   Overcast
2:29 PM 42.8 °F 38.6 °F 23.0 °F 46% 30.19 in 10.0 mi NNW 6.9 mph - N/A   Overcast
2:49 PM 42.8 °F 39.3 °F 24.8 °F 49% 30.19 in 10.0 mi NW 5.8 mph - N/A   Overcast
3:09 PM 44.6 °F 39.7 °F 24.8 °F 46% 30.19 in 10.0 mi NNW 9.2 mph - N/A   Mostly Cloudy
3:29 PM 42.8 °F 40.1 °F 24.8 °F 49% 30.18 in 10.0 mi NW 4.6 mph - N/A   Overcast
3:49 PM 44.6 °F 42.2 °F 24.8 °F 46% 30.18 in 10.0 mi West 4.6 mph - N/A   Overcast
4:09 PM 42.8 °F 37.5 °F 24.8 °F 49% 30.17 in 10.0 mi NW 9.2 mph - N/A   Overcast
4:29 PM 42.8 °F 39.3 °F 24.8 °F 49% 30.17 in 10.0 mi West 5.8 mph - N/A   Overcast
4:49 PM 42.8 °F 39.3 °F 24.8 °F 49% 30.17 in 10.0 mi NW 5.8 mph - N/A   Overcast
5:09 PM 41.0 °F 38.0 °F 24.8 °F 53% 30.17 in 10.0 mi West 4.6 mph - N/A   Overcast
5:29 PM 41.0 °F 36.4 °F 24.8 °F 53% 30.17 in 10.0 mi West 6.9 mph - N/A   Overcast
5:49 PM 41.0 °F - 24.8 °F 53% 30.17 in 10.0 mi Calm Calm - N/A   Mostly Cloudy
6:09 PM 39.2 °F - 24.8 °F 56% 30.17 in 10.0 mi Calm Calm - N/A   Mostly Cloudy
6:29 PM 39.2 °F 37.0 °F 23.0 °F 52% 30.17 in 10.0 mi West 3.5 mph - N/A   Scattered Clouds
6:49 PM 37.4 °F - 23.0 °F 56% 30.17 in 10.0 mi Calm Calm - N/A   Clear
7:09 PM 35.6 °F - 21.2 °F 56% 30.17 in 10.0 mi Calm Calm - N/A   Clear
7:29 PM 33.8 °F - 21.2 °F 60% 30.17 in 10.0 mi Calm Calm - N/A   Clear
7:49 PM 33.8 °F - 21.2 °F 60% 30.16 in 10.0 mi Calm Calm - N/A   Clear
8:09 PM 32.0 °F - 23.0 °F 69% 30.16 in 10.0 mi Calm Calm - N/A   Clear
8:29 PM 32.0 °F - 23.0 °F 69% 30.16 in 10.0 mi Calm Calm - N/A   Clear
8:49 PM 30.2 °F - 21.2 °F 69% 30.16 in 10.0 mi Calm Calm - N/A   Clear
9:09 PM 30.2 °F - 21.2 °F 69% 30.16 in 10.0 mi Calm Calm - N/A   Clear
9:29 PM 28.4 °F 24.6 °F 21.2 °F 74% 30.15 in 10.0 mi South 3.5 mph - N/A   Clear
9:49 PM 28.4 °F 24.6 °F 24.8 °F 86% 30.15 in 10.0 mi South 3.5 mph - N/A   Clear
10:10 PM 28.4 °F 24.6 °F 24.8 °F 86% 30.15 in 10.0 mi SW 3.5 mph - N/A   Clear
10:29 PM 28.4 °F - 24.8 °F 86% 30.14 in 10.0 mi Calm Calm - N/A   Clear
10:49 PM 26.6 °F - 23.0 °F 86% 30.14 in 10.0 mi Calm Calm - N/A   Clear
11:09 PM 26.6 °F - 21.2 °F 80% 30.13 in 10.0 mi Calm Calm - N/A   Clear
11:29 PM 26.6 °F - 21.2 °F 80% 30.12 in 10.0 mi Calm Calm - N/A   Clear
11:49 PM 24.8 °F 20.5 °F 21.2 °F 86% 30.11 in 10.0 mi South 3.5 mph - N/A   Clear